Satellite: AO-27
Catalog number: 22825
Epoch time:      06249.51922043
Element set:     490
Inclination:      098.2910 deg
RA of node:       227.3876 deg
Eccentricity:    0.0009224
Arg of perigee:   025.8564 deg
Mean anomaly:     334.3075 deg
Mean motion:   14.29183125 rev/day
Decay rate:       1.39e-06 rev/day^2
Epoch rev:           67497
Checksum:              316

Satellite: IO-26
Catalog number: 22826
Epoch time:      06249.54515868
Element set:    0184
Inclination:      098.2853 deg
RA of node:       228.5929 deg
Eccentricity:    0.0009585
Arg of perigee:   023.7584 deg
Mean anomaly:     336.4046 deg
Mean motion:   14.29426506 rev/day
Decay rate:        7.0e-08 rev/day^2
Epoch rev:           67505
Checksum:              339

Satellite: PO-28
Catalog number: 22829
Epoch time:      06249.49951200
Element set:     464
Inclination:      098.2751 deg
RA of node:       229.7481 deg
Eccentricity:    0.0009878
Arg of perigee:   359.1161 deg
Mean anomaly:     001.0012 deg
Mean motion:   14.30122097 rev/day
Decay rate:        1.3e-07 rev/day^2
Epoch rev:           67526
Checksum:              295

Satellite: TO-31
Catalog number: 25396
Epoch time:      06250.60035648
Element set:     617
Inclination:      098.4718 deg
RA of node:       307.9639 deg
Eccentricity:    0.0002276
Arg of perigee:   337.2573 deg
Mean anomaly:     022.8506 deg
Mean motion:   14.23711889 rev/day
Decay rate:       -1.2e-07 rev/day^2
Epoch rev:           42407
Checksum:              308

Satellite: GO-32
Catalog number: 25397
Epoch time:      06249.74760508
Element set:     103
Inclination:      098.4601 deg
RA of node:       303.7083 deg
Eccentricity:    0.0001304
Arg of perigee:   016.5928 deg
Mean anomaly:     343.5297 deg
Mean motion:   14.23110269 rev/day
Decay rate:        6.0e-08 rev/day^2
Epoch rev:           42384
Checksum:              285

Satellite: UO-36
Catalog number: 25693
Epoch time:      06249.67247750
Element set:    0134
Inclination:      064.5609 deg
RA of node:       352.4288 deg
Eccentricity:    0.0027246
Arg of perigee:   322.2040 deg
Mean anomaly:     037.7093 deg
Mean motion:   14.78612046 rev/day
Decay rate:      -1.73e-06 rev/day^2
Epoch rev:           39783
Checksum:              317

Satellite: MO-46
Catalog number: 26548
Epoch time:      06250.71723465
Element set:     589
Inclination:      064.5590 deg
RA of node:       336.4651 deg
Eccentricity:    0.0044041
Arg of perigee:   235.5935 deg
Mean anomaly:     124.1005 deg
Mean motion:   14.83013551 rev/day
Decay rate:       2.43e-06 rev/day^2
Epoch rev:           32164
Checksum:              286

Satellite: NO-44
Catalog number: 26931
Epoch time:      06249.72258447
Element set:     394
Inclination:      067.0533 deg
RA of node:       157.6621 deg
Eccentricity:    0.0005674
Arg of perigee:   250.9995 deg
Mean anomaly:     109.0506 deg
Mean motion:   14.29450407 rev/day
Decay rate:      -1.89e-06 rev/day^2
Epoch rev:           25758
Checksum:              331

Satellite: SO-50
Catalog number: 27607
Epoch time:      06249.33021139
Element set:    0116
Inclination:      064.5560 deg
RA of node:       226.7736 deg
Eccentricity:    0.0036299
Arg of perigee:   114.4536 deg
Mean anomaly:     246.0358 deg
Mean motion:   14.71168551 rev/day
Decay rate:        6.1e-07 rev/day^2
Epoch rev:           19936
Checksum:              303

Satellite: CO-57
Catalog number: 27848
Epoch time:      06250.56244621
Element set:     809
Inclination:      098.7214 deg
RA of node:       257.0222 deg
Eccentricity:    0.0009324
Arg of perigee:   185.4109 deg
Mean anomaly:     174.6982 deg
Mean motion:   14.20281830 rev/day
Decay rate:        2.5e-07 rev/day^2
Epoch rev:           16533
Checksum:              300

Satellite: AO-51
Catalog number: 28375
Epoch time:      06249.62220734
Element set:    0622
Inclination:      098.1573 deg
RA of node:       297.9147 deg
Eccentricity:    0.0084284
Arg of perigee:   322.0019 deg
Mean anomaly:     037.5243 deg
Mean motion:   14.40531419 rev/day
Decay rate:        6.0e-08 rev/day^2
Epoch rev:           11489
Checksum:              300

Satellite: XO-53
Catalog number: 28894
Epoch time:      06249.75883830
Element set:    0646
Inclination:      098.1553 deg
RA of node:       146.7455 deg
Eccentricity:    0.0016764
Arg of perigee:   281.1828 deg
Mean anomaly:     078.7482 deg
Mean motion:   14.59503447 rev/day
Decay rate:        4.8e-07 rev/day^2
Epoch rev:           04587
Checksum:              360

Satellite: CO-56
Catalog number: 28941
Epoch time:      06249.65974877
Element set:     192
Inclination:      098.1729 deg
RA of node:       276.2470 deg
Eccentricity:    0.0271655
Arg of perigee:   187.4635 deg
Mean anomaly:     172.2633 deg
Mean motion:   15.27334325 rev/day
Decay rate:     1.8671e-04 rev/day^2
Epoch rev:            2997
Checksum:              362

/EX
[keps]  orb06250.amsa

Orbital Elements  06250.WEATHER

HR AMSAT ORBITAL ELEMENTS FOR WEATHER SATELLITES
FROM WA5QGD FORT WORTH,TX September 7, 2006
Send SUBSCRIBE KEPS/UNSUBSCRIBE KEPS to majordomo@amsat.org only
BID: ORB06250.W
TO ALL RADIO AMATEURS BT

Satellite: NOAA-10
Catalog number: 16969
Epoch time:      06250.44426275
Element set:     338
Inclination:      098.7600 deg
RA of node:       262.2545 deg
Eccentricity:    0.0011631
Arg of perigee:   273.1051 deg
Mean anomaly:     086.8809 deg
Mean motion:   14.27302455 rev/day
Decay rate:       -6.3e-07 rev/day^2
Epoch rev:            3889
Checksum:              301

